Regional Weather Roundup
Issued by NWS Northern Indiana

Home | Current Version | Previous Version | Text Only | Print | Product List | Glossary On
Versions: 1 2 3 4 5 6 7 8 9 10 11 12 13 14 15 16 17 18 19 20 21 22 23 24 25 26 27 28 29 30 31 32 33 34 35 36 37 38 39 40 41 42 43 44 45 46 47 48 49 50
000
ASUS43 KIWX 260600
RWRIWX

KIWX WEATHER ROUNDUP
NATIONAL WEATHER SERVICE NORTHERN INDIANA
200 AM EDT FRI MAY 26 2017

NOTE: "FAIR" INDICATES FEW OR NO CLOUDS BELOW 12,000 FEET WITH NO
SIGNIFICANT WEATHER AND/OR OBSTRUCTIONS TO VISIBILITY.

* THESE STATIONS ARE NOT UNDER NWS QUALITY CONTROL. THEY ALSO MAY NOT
  REPORT WEATHER SUCH AS PRECIPITATION OR FOG.

INZ001>027-260700-
NORTHERN INDIANA

CITY           SKY/WX    TMP DP  RH WIND       PRES   REMARKS
MICHIGAN CITY* CLEAR     46  46 100 CALM      29.79S FOG
SOUTH BEND     CLOUDY    50  50 100 W10       29.78R
6HR MIN TEMP:  48; 6HR MAX TEMP:  57;

GOSHEN         CLOUDY    52  49  89 W10       29.76R
6HR MIN TEMP:  52; 6HR MAX TEMP:  61;

MONTICELLO*    CLEAR     53  51  92 CALM      29.79S
6HR MIN TEMP:  53; 6HR MAX TEMP:  62;

FORT WAYNE     PTCLDY    55  51  86 W12       29.75R
6HR MIN TEMP:  55; 6HR MAX TEMP:  61;


$$
INZ028>050-260700-
CENTRAL INDIANA

CITY           SKY/WX    TMP DP  RH WIND       PRES   REMARKS
LAFAYETTE      FOG       50  50 100 SW3       29.80S VSB 1/2
6HR MIN TEMP:  50; 6HR MAX TEMP:  63;

KOKOMO*        CLEAR     56  53  90 W9        29.80R
6HR MIN TEMP:  55; 6HR MAX TEMP:  62;

MUNCIE*        PTCLDY    58  55  90 W9        29.79R
6HR MIN TEMP:  58; 6HR MAX TEMP:  62;

INDIANAPOLIS   CLEAR     53  51  93 W5        29.82R
6HR MIN TEMP:  52; 6HR MAX TEMP:  63;


$$
MIZ043>046-050>051-056>058-064>065-071>073-077>080-260700-
SOUTHWEST LOWER MICHIGAN

CITY           SKY/WX    TMP DP  RH WIND       PRES   REMARKS
BATTLE CREEK   MOCLDY    55  53  93 W8        29.72R
6HR MIN TEMP:  55; 6HR MAX TEMP:  62; 6HR PCP: TRACE;

BENTON HARBOR  MOCLDY    50  48  93 W6        29.76S
6HR MIN TEMP:  48; 6HR MAX TEMP:  53;

COLDWATER*     CLEAR     53  53 100 W8        29.72R
6HR MIN TEMP:  53; 6HR MAX TEMP:  61;

HILLSDALE*     CLOUDY    55  54  94 W6        29.70R
HOLLAND        CLEAR     51  50  96 W7        29.74R
6HR MIN TEMP:  50; 6HR MAX TEMP:  62;

GRAND RAPIDS   CLEAR     56  53  90 NW5       29.72R
6HR MIN TEMP:  56; 6HR MAX TEMP:  65;

KALAMAZOO      PTCLDY    51  48  89 W5        29.73R
6HR MIN TEMP:  51; 6HR MAX TEMP:  64;

STURGIS*       CLOUDY    51  51  98 W6        29.73R
6HR MIN TEMP:  51; 6HR MAX TEMP:  61;

THREE RIVERS*  CLOUDY    52  51  97 W8        29.74R
6HR MIN TEMP:  51; 6HR MAX TEMP:  63;


$$
OHZ001>008-015>018-024>025-260700-
NORTHWEST OHIO

CITY           SKY/WX    TMP DP  RH WIND       PRES   REMARKS
DEFIANCE       CLEAR     55  52  89 W6        29.71R
6HR MIN TEMP:  55; 6HR MAX TEMP:  62;

FINDLAY        CLOUDY    60  54  80 W12       29.69S
6HR MIN TEMP:  59; 6HR MAX TEMP:  64; 6HR PCP:  0.02;

TOLEDO EXPRESS MOCLDY    59  57  93 W12       29.67S
6HR MIN TEMP:  59; 6HR MAX TEMP:  61;

TOLEDO METCALF CLOUDY    61  57  87 W9        29.68R
6HR MIN TEMP:  61; 6HR MAX TEMP:  63; 6HR PCP: TRACE;

LIMA           PTCLDY    57  55  93 W15       29.72R
6HR MIN TEMP:  57; 6HR MAX TEMP:  61; 6HR PCP: TRACE;


$$
AND FOR LAKE MICHIGAN COASTAL AND OPEN LAKE BUOY OBSERVATIONS

STATION/POSITION TEMP    WIND        PRES    VSBY  WAVE
                 AIR SEA DIR/SP/G                  HT/PER
                 (F)     (DEG/KT/KT) (MB)    (MI)  (FT/S)
CALUMET HARBOR    55     240/  1/  2 1008.3S
MICHIGAN CITY     52     250/  8/  9   N/A
BURNS HARBOR      55     290/  5/  8 1009.5R
SOUTH LAKE BUOY   48 45  350/ 10/ 10 1007.7          2/ 5
4 MI NW BRIDGMAN  51 55  270/  8/ 10 1008.6R         3/ 5
MICHIGAN CITY     51 51  270/  4/  6   N/A           2/ 5

$$
&&




USA.gov is the U.S. government's official web portal to all federal, state and local government web resources and services.